This demonstration page uses our WeatherBlox Daily Observations layout. Learn more.

Left ArrowRight Arrow

41.55636, -103.73856

Hourly Observations for October 22, 2021

Temp ( °F °C ) Dew Point ( °F °C ) Humidity (%) Winds ( mph kmh ) Pressure ( in mb ) Visibility ( mi km ) Precip ( " mm )
12:58 am 00:58 Clear 46 8 28 -2.5 48 48 Calm 30.08 1019 10 16 0.00 0.00
1:58 am 01:58 Clear 45 7.4 27 -2.6 49 49 WSW 7 11 30.06 1018 10 16 0.00 0.00
2:58 am 02:58 Clear 43 6.1 26 -3.2 52 52 WNW 3 6 30.05 1018 10 16 0.00 0.00
3:58 am 03:58 Clear 44 6.4 28 -2.4 54 54 WNW 8 13 30.04 1017 10 16 0.00 0.00
4:58 am 04:58 Clear 42 5.8 28 -2.3 56 56 W 5 7 30.04 1017 10 16 0.00 0.00
5:58 am 05:58 Clear 40 4.7 29 -1.9 63 63 SW 9 15 30.05 1018 10 16 0.00 0.00
6:58 am 06:58 Clear 42 5.6 28 -2.4 57 57 WSW 6 9 30.06 1018 10 16 0.00 0.00
7:58 am 07:58 Sunny 43 6.3 28 -2.1 55 55 WSW 8 13 30.07 1018 10 16 0.00 0.00
8:58 am 08:58 Sunny 50 10.1 31 -0.7 47 47 Calm 30.06 1018 10 16 0.00 0.00
9:58 am 09:58 Sunny 57 14 33 0.7 41 41 NW 8 13 30.03 1017 10 16 0.00 0.00
10:58 am 10:58 Sunny 62 16.6 31 -0.6 31 31 NW 16 26 30.00 1016 10 16 0.00 0.00
11:58 am 11:58 Sunny 65 18.5 31 -0.8 27 27 NW 12 19 29.99 1016 10 16 0.00 0.00
12:58 pm 12:58 Sunny 68 19.8 29 -1.8 23 23 NW 9 15 29.94 1014 10 16 0.00 0.00
1:58 pm 13:58 Sunny 68 20.1 29 -1.7 23 23 NNW 10 17 29.91 1013 10 16 0.00 0.00
2:58 pm 14:58 Sunny 69 20.4 28 -2.4 21 21 NNW 8 13 29.90 1013 10 16 0.00 0.00
3:58 pm 15:58 Sunny 68 20.2 27 -2.8 21 21 Calm 29.89 1012 10 16 0.00 0.00
4:58 pm 16:58 Sunny 68 19.9 26 -3.2 21 21 N 3 6 29.88 1012 10 16 0.00 0.00
5:58 pm 17:58 Sunny 58 14.7 33 0.6 38 38 ESE 8 13 29.91 1013 10 16 0.00 0.00
6:58 pm 18:58 Clear 57 13.8 33 0.4 40 40 SE 12 19 29.90 1012 10 16 0.00 0.00
7:58 pm 19:58 Mostly Clear 56 13.3 33 0.3 41 41 SE 15 24 29.88 1012 10 16 0.00 0.00
8:58 pm 20:58 Clear 54 12.1 32 0.2 44 44 SE 14 22 29.87 1011 10 16 0.00 0.00
9:58 pm 21:58 Clear 53 11.8 32 0.1 45 45 SSE 12 19 29.83 1010 10 16 0.00 0.00
10:58 pm 22:58 Mostly Clear 50 10.1 33 0.3 51 51 SE 13 20 29.84 1010 10 16 0.00 0.00
11:58 pm 23:58 Clear 46 7.7 33 0.5 61 61 Calm 29.82 1010 10 16 0.00 0.00

Powered by AerisWeather